Regional Weather Roundup
Issued by NWS

Home | Current Version | Previous Version | Text Only | Print | Product List | Glossary Off
Versions: 1 2 3 4 5 6 7 8 9 10 11 12 13 14 15 16 17 18 19 20 21 22 23 24 25 26 27 28 29 30 31 32 33 34 35 36 37 38 39 40 41 42 43 44 45 46 47 48 49 50

200
ASUS45 KSLC 080010
RWRUT

UTAH REGIONAL WEATHER ROUNDUP
NATIONAL WEATHER SERVICE SALT LAKE CITY UT
500 PM MST SUN FEB 07 2016

UTZ001>011-023>025-080100-

NORTHERN UTAH

CITY           SKY/WX    TMP DP  RH WIND       PRES   REMARKS
BRIGHAM CITY   CLEAR     31  24  73 CALM      30.61S
HILL AFB       CLEAR     35  22  60 NW6       30.59R WCI  30
LOGAN          CLEAR     30  21  69 CALM      30.59S
OGDEN          CLEAR     33  26  75 NW6       30.59R WCI  28
PROVO AIRPORT  NOT AVBL
SALT LAKE CITY MOCLDY    36  28  73 N6        30.60R HAZE    WCI  31
VERNAL         CLOUDY    21  12  68 E5        30.51R WCI  15
WENDOVER       CLEAR     39  28  65 E6        30.60S WCI  35
HEBER CITY     CLEAR     30  18  59 CALM      30.54R
WEST JORDAN    CLEAR     36  27  69 NW5       30.60R WCI  32

$$

UTZ012>022-026-027-080100-

SOUTHERN/CENTRAL UTAH

CITY           SKY/WX    TMP DP  RH WIND       PRES   REMARKS
BLANDING       CLEAR     42  23  47 CALM      30.47F
BRYCE CANYON   CLEAR     33  17  51 N13       30.49R WCI  24
CEDAR CITY     SUNNY     38  21  50 CALM      30.50S
DELTA          PTCLDY    23  19  83 SW5       30.60R WCI  17
HANKSVILLE     CLEAR     32  23  69 CALM      30.53F
MILFORD        SUNNY     22  52 100 NE10      30.56R WCI  11
MOAB/CYNLANDS  CLEAR     24  18  77 NW8       30.50S WCI  15
PRICE          CLEAR     33  19  56 E3        30.46R
ST GEORGE      CLEAR     61  23  23 NE14      30.39S
KANAB          SUNNY     55  23  28 E8        30.44R

$$

REGIONAL REPORTS     COLORADO/ARIZONA

CITY           SKY/WX    TMP DP  RH WIND       PRES   REMARKS
CRAIG, CO      CLOUDY    18  11  74 CALM      30.48R
GRAND JUNCTION CLOUDY    27  20  75 NE6       30.48F WCI  20
RIFLE          CLOUDY    29  16  58 S7        30.47R WCI  22
MONTROSE       CLOUDY    36  19  50 CALM      30.48F
CORTEZ         CLEAR     45  20  36 NW10      30.36F
PAGE, AZ       CLEAR     45  23  42 CALM      30.45S
GRAND CANYON   SUNNY     47  15  27 NE15G22   30.44R
KINGMAN        SUNNY     64  20  18 N21       30.28S
FLAGSTAFF      SUNNY     44  14  29 NE15      30.40S

$$

REGIONAL REPORTS    NEVADA/IDAHO/WYOMING

CITY           SKY/WX    TMP DP  RH WIND       PRES   REMARKS
LAS VEGAS, NV  SUNNY     71  19  14 NE9       30.28S
ELY            SUNNY     35  20  54 CALM      30.56R
ELKO           SUNNY     32  18  56 CALM      30.58S
POCATELLO, ID  CLOUDY    34  26  72 N3        30.60R
BURLEY         PTCLDY    38  31  76 N6        30.57R WCI  33
EVANSTON, WY   CLOUDY    28  18  66 SW12      30.53R WCI  18
ROCK SPRINGS   CLOUDY    31  21  66 W23       30.44R WCI  18

$$




USA.gov is the U.S. government's official web portal to all federal, state and local government web resources and services.